This is the latest recevied weather packets stored in our database for station/object IK1PCD-11. If no packets are shown the sender has not sent any weather packets the latest 1 day(s).
| Time | Temp. | Humidity | Pressure | Rain* | Wind** | Luminosity | Snow |
|---|---|---|---|---|---|---|---|
| 1777734795 | 17.78° C | 45% | 1021.5 hPa | - | - | - | - |
| 1777733894 | 17.78° C | 47% | 1021.4 hPa | - | - | - | - |
| 1777732994 | 18.33° C | 45% | 1021.5 hPa | - | - | - | - |
| 1777732094 | 18.33° C | 45% | 1021.6 hPa | - | - | - | - |
| 1777731194 | 19.44° C | 42% | 1021.7 hPa | - | - | - | - |
| 1777730294 | 18.33° C | 45% | 1021.8 hPa | - | - | - | - |
| 1777729394 | 19.44° C | 41% | 1021.9 hPa | - | - | - | - |
| 1777728494 | 18.89° C | 41% | 1022.1 hPa | - | - | - | - |
| 1777727594 | 18.33° C | 43% | 1022.2 hPa | - | - | - | - |
| 1777726694 | 19.44° C | 43% | 1022.3 hPa | - | - | - | - |
| 1777725794 | 19.44° C | 40% | 1022.4 hPa | - | - | - | - |
| 1777724893 | 18.89° C | 40% | 1022.4 hPa | - | - | - | - |
| 1777723408 | 20° C | 40% | 1022.6 hPa | - | - | - | - |
| 1777722507 | 19.44° C | 38% | 1022.8 hPa | - | - | - | - |
| 1777721607 | 18.89° C | 39% | 1022.9 hPa | - | - | - | - |
| 1777720707 | 19.44° C | 37% | 1023.1 hPa | - | - | - | - |
| 1777719806 | 18.33° C | 37% | 1023.2 hPa | - | - | - | - |
| 1777718908 | 17.78° C | 39% | 1023.3 hPa | - | - | - | - |
| 1777718006 | 17.22° C | 39% | 1023.5 hPa | - | - | - | - |
| 1777717106 | 16.67° C | 40% | 1023.6 hPa | - | - | - | - |
| 1777716206 | 16.67° C | 41% | 1023.8 hPa | - | - | - | - |
| 1777715306 | 15.56° C | 39% | 1023.9 hPa | - | - | - | - |
| 1777714405 | 15° C | 41% | 1023.9 hPa | - | - | - | - |
| 1777713505 | 14.44° C | 41% | 1024 hPa | - | - | - | - |
| 1777712605 | 13.89° C | 46% | 1024.1 hPa | - | - | - | - |
* Rain since midnight (hover to see other rain measurements)
** Current wind speed in m/s (hover to see current wind gust speed)